Time,TemperatureF,DewpointF,PressureIn,WindDirection,WindDirectionDegrees,WindSpeedMPH,WindSpeedGustMPH,Humidity,HourlyPrecipIn,Conditions,Clouds,dailyrainin,SolarRadiationWatts/m^2,SoftwareType,DateUTC
2013-06-25 00:01:00,60.0,41.0,-100.00,NE,34,4.0,11.0,50,0.00,,,0.00,9.700000,,2013-06-25 08:01:00,
2013-06-25 00:11:00,60.0,41.0,-100.00,NE,34,4.0,11.0,50,0.00,,,0.00,9.700000,,2013-06-25 08:11:00,
2013-06-25 00:21:00,60.0,41.0,-100.00,NE,34,4.0,11.0,50,0.00,,,0.00,9.700000,,2013-06-25 08:21:00,
2013-06-25 00:53:00,59.0,43.0,-100.00,WSW,249,3.0,9.0,54,0.00,,,0.00,2.200000,,2013-06-25 08:53:00,
2013-06-25 01:02:00,59.0,43.0,-100.00,WSW,249,3.0,9.0,54,0.00,,,0.00,2.200000,,2013-06-25 09:02:00,
2013-06-25 01:12:00,59.0,43.0,-100.00,WSW,249,3.0,9.0,54,0.00,,,0.00,2.200000,,2013-06-25 09:12:00,
2013-06-25 01:21:00,59.0,43.0,-100.00,WSW,249,3.0,9.0,54,0.00,,,0.00,2.200000,,2013-06-25 09:21:00,
2013-06-25 01:53:00,60.0,39.0,-100.00,WSW,250,4.0,7.0,46,0.00,,,0.00,0.800000,,2013-06-25 09:53:00,
2013-06-25 02:01:00,60.0,39.0,-100.00,WSW,250,4.0,7.0,46,0.00,,,0.00,0.800000,,2013-06-25 10:01:00,
2013-06-25 02:11:00,60.0,39.0,-100.00,WSW,250,4.0,7.0,46,0.00,,,0.00,0.800000,,2013-06-25 10:11:00,
2013-06-25 02:21:00,60.0,39.0,-100.00,WSW,250,4.0,7.0,46,0.00,,,0.00,0.800000,,2013-06-25 10:21:00,
2013-06-25 02:52:00,60.0,39.0,-100.00,WSW,252,5.0,13.0,46,0.00,,,0.00,0.800000,,2013-06-25 10:52:00,
2013-06-25 03:02:00,60.0,39.0,-100.00,WSW,252,5.0,13.0,46,0.00,,,0.00,0.800000,,2013-06-25 11:02:00,
2013-06-25 03:11:00,60.0,39.0,-100.00,WSW,252,5.0,13.0,46,0.00,,,0.00,0.800000,,2013-06-25 11:11:00,
2013-06-25 03:21:00,60.0,39.0,-100.00,WSW,252,5.0,13.0,46,0.00,,,0.00,0.800000,,2013-06-25 11:21:00,
2013-06-25 03:52:00,59.0,40.0,-100.00,ESE,117,3.0,10.0,49,-99.99,,,0.00,0.800000,,2013-06-25 11:52:00,
2013-06-25 04:01:00,59.0,40.0,-100.00,ESE,117,3.0,10.0,49,-99.99,,,0.00,0.800000,,2013-06-25 12:01:00,
2013-06-25 04:11:00,59.0,40.0,-100.00,ESE,117,3.0,10.0,49,-99.99,,,0.00,0.800000,,2013-06-25 12:11:00,
2013-06-25 04:22:00,59.0,40.0,-100.00,ESE,117,3.0,10.0,49,-99.99,,,0.00,0.800000,,2013-06-25 12:22:00,
2013-06-25 04:55:00,60.0,38.0,-100.00,SW,229,2.0,7.0,43,0.00,,,0.00,2.500000,,2013-06-25 12:55:00,
2013-06-25 05:01:00,60.0,38.0,-100.00,SW,229,2.0,7.0,43,0.00,,,0.00,2.500000,,2013-06-25 13:01:00,
2013-06-25 05:11:00,60.0,38.0,-100.00,SW,229,2.0,7.0,43,0.00,,,0.00,2.500000,,2013-06-25 13:11:00,
2013-06-25 05:22:00,60.0,38.0,-100.00,SW,229,2.0,7.0,43,0.00,,,0.00,2.500000,,2013-06-25 13:22:00,
2013-06-25 06:01:00,60.0,38.0,-100.00,ESE,119,6.0,19.0,43,-99.99,,,0.00,20.700001,,2013-06-25 14:01:00,
2013-06-25 06:11:00,60.0,38.0,-100.00,ESE,119,6.0,19.0,43,-99.99,,,0.00,20.700001,,2013-06-25 14:11:00,
2013-06-25 06:22:00,60.0,38.0,-100.00,ESE,119,6.0,19.0,43,-99.99,,,0.00,20.700001,,2013-06-25 14:22:00,
2013-06-25 06:53:00,60.0,36.0,-100.00,WSW,250,7.0,17.0,41,0.00,,,0.00,96.400002,,2013-06-25 14:53:00,
2013-06-25 07:01:00,60.0,36.0,-100.00,WSW,250,7.0,17.0,41,0.00,,,0.00,96.400002,,2013-06-25 15:01:00,
2013-06-25 07:11:00,60.0,36.0,-100.00,WSW,250,7.0,17.0,41,0.00,,,0.00,96.400002,,2013-06-25 15:11:00,
2013-06-25 07:53:00,65.0,44.0,-100.00,SSW,193,1.0,14.0,45,0.00,,,0.00,200.699997,,2013-06-25 15:53:00,
2013-06-25 08:12:00,65.0,44.0,-100.00,SSW,193,1.0,14.0,45,0.00,,,0.00,200.699997,,2013-06-25 16:12:00,
2013-06-25 08:23:00,65.0,44.0,-100.00,SSW,193,1.0,14.0,45,0.00,,,0.00,200.699997,,2013-06-25 16:23:00,
2013-06-25 08:52:00,65.0,37.0,-100.00,WSW,247,4.0,4.0,35,-99.99,,,0.00,220.300003,,2013-06-25 16:52:00,
2013-06-25 09:11:00,65.0,37.0,-100.00,WSW,247,4.0,4.0,35,-99.99,,,0.00,220.300003,,2013-06-25 17:11:00,
2013-06-25 09:22:00,65.0,37.0,-100.00,WSW,247,4.0,4.0,35,-99.99,,,0.00,220.300003,,2013-06-25 17:22:00,
2013-06-25 10:02:00,65.0,41.0,-100.00,ESE,105,4.0,12.0,41,0.00,,,0.00,270.799988,,2013-06-25 18:02:00,
2013-06-25 10:12:00,65.0,41.0,-100.00,ESE,105,4.0,12.0,41,0.00,,,0.00,270.799988,,2013-06-25 18:12:00,
2013-06-25 10:22:00,65.0,41.0,-100.00,ESE,105,4.0,12.0,41,0.00,,,0.00,270.799988,,2013-06-25 18:22:00,
2013-06-25 10:53:00,67.0,38.0,-100.00,East,94,3.0,25.0,35,0.00,,,0.00,319.299988,,2013-06-25 18:53:00,
2013-06-25 11:01:00,67.0,38.0,-100.00,East,94,3.0,25.0,35,0.00,,,0.00,319.299988,,2013-06-25 19:01:00,
2013-06-25 11:12:00,67.0,38.0,-100.00,East,94,3.0,25.0,35,0.00,,,0.00,319.299988,,2013-06-25 19:12:00,
2013-06-25 11:22:00,67.0,38.0,-100.00,East,94,3.0,25.0,35,0.00,,,0.00,319.299988,,2013-06-25 19:22:00,
2013-06-25 11:54:00,64.0,41.0,-100.00,SSW,211,8.0,52.0,43,0.00,,,0.00,146.899994,,2013-06-25 19:54:00,
2013-06-25 12:01:00,64.0,41.0,-100.00,SSW,211,8.0,52.0,43,0.00,,,0.00,146.899994,,2013-06-25 20:01:00,
2013-06-25 12:11:00,64.0,41.0,-100.00,SSW,211,8.0,52.0,43,0.00,,,0.00,146.899994,,2013-06-25 20:11:00,
2013-06-25 12:22:00,64.0,41.0,-100.00,SSW,211,8.0,52.0,43,0.00,,,0.00,146.899994,,2013-06-25 20:22:00,
2013-06-25 12:52:00,66.0,38.0,-100.00,ENE,63,4.0,31.0,36,0.00,,,0.00,303.000000,,2013-06-25 20:52:00,
2013-06-25 13:11:00,66.0,38.0,-100.00,ENE,63,4.0,31.0,36,0.00,,,0.00,303.000000,,2013-06-25 21:11:00,
2013-06-25 13:22:00,66.0,38.0,-100.00,ENE,63,4.0,31.0,36,0.00,,,0.00,303.000000,,2013-06-25 21:22:00,
2013-06-25 13:53:00,66.0,41.0,-100.00,South,181,6.0,20.0,39,0.00,,,0.00,176.899994,,2013-06-25 21:53:00,
2013-06-25 14:01:00,66.0,41.0,-100.00,South,181,6.0,20.0,39,0.00,,,0.00,176.899994,,2013-06-25 22:01:00,
2013-06-25 14:11:00,66.0,41.0,-100.00,South,181,6.0,20.0,39,0.00,,,0.00,176.899994,,2013-06-25 22:11:00,
2013-06-25 14:22:00,66.0,41.0,-100.00,South,181,6.0,20.0,39,0.00,,,0.00,176.899994,,2013-06-25 22:22:00,
2013-06-25 14:52:00,66.0,40.0,-100.00,WSW,257,3.0,25.0,39,0.00,,,0.00,179.199997,,2013-06-25 22:52:00,
2013-06-25 15:01:00,66.0,40.0,-100.00,WSW,257,3.0,25.0,39,0.00,,,0.00,179.199997,,2013-06-25 23:01:00,
2013-06-25 15:11:00,66.0,40.0,-100.00,WSW,257,3.0,25.0,39,0.00,,,0.00,179.199997,,2013-06-25 23:11:00,
2013-06-25 15:22:00,66.0,40.0,-100.00,WSW,257,3.0,25.0,39,0.00,,,0.00,179.199997,,2013-06-25 23:22:00,
2013-06-25 15:52:00,67.0,40.0,-100.00,West,272,5.0,174.0,38,0.00,,,0.00,297.600006,,2013-06-25 23:52:00,
2013-06-25 16:02:00,67.0,40.0,-100.00,West,272,5.0,174.0,38,0.00,,,0.00,297.600006,,2013-06-26 00:02:00,
2013-06-25 16:11:00,67.0,40.0,-100.00,West,272,5.0,174.0,38,0.00,,,0.00,297.600006,,2013-06-26 00:11:00,
2013-06-25 16:22:00,67.0,40.0,-100.00,West,272,5.0,174.0,38,0.00,,,0.00,297.600006,,2013-06-26 00:22:00,
2013-06-25 17:53:00,72.0,43.0,-100.00,North,354,3.0,15.0,36,0.00,,,0.00,366.000000,,2013-06-26 01:53:00,
2013-06-25 18:02:00,72.0,43.0,-100.00,North,354,3.0,15.0,36,0.00,,,0.00,366.000000,,2013-06-26 02:02:00,
2013-06-25 18:11:00,72.0,43.0,-100.00,North,354,3.0,15.0,36,0.00,,,0.00,366.000000,,2013-06-26 02:11:00,
2013-06-25 18:22:00,72.0,43.0,-100.00,North,354,3.0,15.0,36,0.00,,,0.00,366.000000,,2013-06-26 02:22:00,
2013-06-25 18:53:00,69.0,43.0,-100.00,WSW,240,2.0,78.0,40,0.00,,,0.00,326.799988,,2013-06-26 02:53:00,
2013-06-25 19:02:00,69.0,43.0,-100.00,WSW,240,2.0,78.0,40,0.00,,,0.00,326.799988,,2013-06-26 03:02:00,
2013-06-25 19:11:00,69.0,43.0,-100.00,WSW,240,2.0,78.0,40,0.00,,,0.00,326.799988,,2013-06-26 03:11:00,
2013-06-25 19:22:00,69.0,43.0,-100.00,WSW,240,2.0,78.0,40,0.00,,,0.00,326.799988,,2013-06-26 03:22:00,
2013-06-25 19:52:00,70.0,45.0,-100.00,WSW,256,3.0,31.0,42,0.00,,,0.00,367.899994,,2013-06-26 03:52:00,
2013-06-25 20:01:00,70.0,45.0,-100.00,WSW,256,3.0,31.0,42,0.00,,,0.00,367.899994,,2013-06-26 04:01:00,
2013-06-25 20:12:00,70.0,45.0,-100.00,WSW,256,3.0,31.0,42,0.00,,,0.00,367.899994,,2013-06-26 04:12:00,
2013-06-25 20:22:00,70.0,45.0,-100.00,WSW,256,3.0,31.0,42,0.00,,,0.00,367.899994,,2013-06-26 04:22:00,
2013-06-25 20:53:00,69.0,45.0,-100.00,West,274,2.0,93.0,42,0.00,,,0.00,284.100006,,2013-06-26 04:53:00,
2013-06-25 21:02:00,69.0,45.0,-100.00,West,274,2.0,93.0,42,0.00,,,0.00,284.100006,,2013-06-26 05:02:00,
2013-06-25 21:11:00,69.0,45.0,-100.00,West,274,2.0,93.0,42,0.00,,,0.00,284.100006,,2013-06-26 05:11:00,
2013-06-25 21:21:00,69.0,45.0,-100.00,West,274,2.0,93.0,42,0.00,,,0.00,284.100006,,2013-06-26 05:21:00,
2013-06-25 21:52:00,67.0,42.0,-100.00,NNW,335,2.0,9.0,40,0.00,,,0.00,162.199997,,2013-06-26 05:52:00,
2013-06-25 22:01:00,67.0,42.0,-100.00,NNW,335,2.0,9.0,40,0.00,,,0.00,162.199997,,2013-06-26 06:01:00,
2013-06-25 22:11:00,67.0,42.0,-100.00,NNW,335,2.0,9.0,40,0.00,,,0.00,162.199997,,2013-06-26 06:11:00,
2013-06-25 22:22:00,67.0,42.0,-100.00,NNW,335,2.0,9.0,40,0.00,,,0.00,162.199997,,2013-06-26 06:22:00,
2013-06-25 22:53:00,64.0,41.0,-100.00,WSW,250,2.0,20.0,43,0.00,,,0.00,31.799999,,2013-06-26 06:53:00,
2013-06-25 23:01:00,64.0,41.0,-100.00,WSW,250,2.0,20.0,43,0.00,,,0.00,31.799999,,2013-06-26 07:01:00,
2013-06-25 23:11:00,64.0,41.0,-100.00,WSW,250,2.0,20.0,43,0.00,,,0.00,31.799999,,2013-06-26 07:11:00,
2013-06-25 23:21:00,64.0,41.0,-100.00,WSW,250,2.0,20.0,43,0.00,,,0.00,31.799999,,2013-06-26 07:21:00,
2013-06-25 23:53:00,63.0,40.0,-100.00,ENE,78,3.0,8.0,42,0.00,,,0.00,13.300000,,2013-06-26 07:53:00,